Location: Cormont
(50.5693°N, 1.7416°E)
Time: 14:59:44
(UTC+00:00)

Cosmos 2082 Rocket - Pass Details

Date: 21 October 2019
Orbit: 832 x 854 km, 71.0° (Epoch: 17 November)

Event Time Altitude Azimuth Distance (km) Brightness Sun altitude
Rises 17:55:30 0° 331° (NNW) 3,436 5.7 -11.1°
Reaches altitude 10° 17:57:59 10° 333° (NNW) 2,494 5.0 -11.5°
Maximum altitude 18:03:44 72° 58° (ENE) 898 2.2 -12.4°
Drops below altitude 10° 18:09:23 10° 143° (SE) 2,467 4.3 -13.3°
Sets 18:11:50 0° 146° (SE) 3,395 5.0 -13.7°
Enters shadow 18:12:02 -1° 146° (SE) 3,472 5.1 -13.8°
